Weather in Cherkesovsky

Russia / Volgograd Oblast     50°41′08″N   42°33′56″E
temp.,
°C
wind,
m/s
gust,
m/s
humid.,
%
clouds,
%
prec.,
mm/h
press.,
hPa
HPBL,
m
28 september, tue
tue2800:00+8n3790100 0.0 1017192
03:00+8nnw359280 0.0 1018151
06:00+9nne3790100 0.1 1019359
09:00+9nne4678100 0.1 1020528
12:00+10nne5567100 0.0 10221083
15:00+9ne5576100 0.3 1023822
18:00+7ne5781100 0.1 1026626
21:00+7nne3782100 0.1 1027653
29 september, wed
wed2900:00+7nne477479 0.0 1028390
03:00+7nne476789 0.0 1029270
06:00+3nne488439 0.0 1030175
09:00+7nne58595 0.0 1030727
12:00+10ne56445 0.0 10301453
15:00+11ne56405 0.0 10291652
18:00+8nne35545 0.0 103083
21:00+6nne376420 0.0 1031133
30 september, thu
thu3000:00+4nne34695 0.0 103261
03:00+4n33735 0.0 103244
06:00+3n34785 0.0 103363
09:00+8nne35585 0.0 1033436
12:00+11nne34435 0.0 10321441
15:00+12nne344252 0.0 10321706
18:00+9nne33575 0.0 103236
21:00+7ne34655 0.0 103348
1 october, fri
fri100:00+6ne33705 0.0 103428
03:00+5ne22735 0.0 103419
06:00+5nne117092 0.0 103510
09:00+9nne2257100 0.0 1035276
12:00+12n225089 0.0 1035928
15:00+13n434976 0.0 10341146
18:00+10n236393 0.0 103468
21:00+10n1165100 0.0 103510
2 october, sat
sat200:00+10nnw1167100 0.0 103423
03:00+10nnw2269100 0.0 103438
06:00+10n2276100 0.0 103436
09:00+11nne2376100 0.0 1034206
12:00+13ene2368100 0.0 1033640
15:00+14ene2359100 0.0 10331065
18:00+12e226925 0.0 103326
21:00+10ene227795 0.0 103327